TimeCST,TemperatureF,Dew PointF,Humidity,Sea Level PressureIn,VisibilityMPH,Wind Direction,Wind SpeedMPH,Gust SpeedMPH,PrecipitationIn,Events,Conditions,WindDirDegrees,DateUTC
12:54 AM,24.1,15.1,69,29.79,10.0,West,21.9,33.4,N/A,,Scattered Clouds,280,2013-01-12 06:54:00
1:46 AM,23.0,12.2,63,29.82,10.0,WNW,17.3,28.8,N/A,,Mostly Cloudy,290,2013-01-12 07:46:00
1:54 AM,23.0,15.1,72,29.86,5.0,WNW,21.9,31.1,0.00,Snow,Light Snow,290,2013-01-12 07:54:00
2:04 AM,23.0,12.2,63,29.84,8.0,WNW,20.7,31.1,0.00,,Mostly Cloudy,300,2013-01-12 08:04:00
2:54 AM,21.9,10.9,63,29.91,10.0,WNW,13.8,20.7,0.00,,Mostly Cloudy,290,2013-01-12 08:54:00
3:54 AM,21.9,12.0,66,29.93,10.0,WNW,15.0,-,N/A,,Overcast,290,2013-01-12 09:54:00
4:54 AM,21.0,10.9,65,29.96,10.0,WNW,12.7,20.7,0.00,,Overcast,290,2013-01-12 10:54:00
5:17 AM,19.4,10.4,68,29.95,10.0,WNW,12.7,19.6,N/A,,Scattered Clouds,290,2013-01-12 11:17:00
5:54 AM,19.0,9.0,65,30.00,10.0,West,11.5,-,N/A,,Clear,280,2013-01-12 11:54:00
6:54 AM,18.0,8.1,65,30.01,10.0,WNW,11.5,-,N/A,,Clear,290,2013-01-12 12:54:00
7:54 AM,17.1,7.0,65,30.05,10.0,West,12.7,-,N/A,,Clear,280,2013-01-12 13:54:00
8:54 AM,18.0,7.0,62,30.09,10.0,West,9.2,-,N/A,,Clear,270,2013-01-12 14:54:00
9:15 AM,19.4,8.6,63,30.06,10.0,West,16.1,20.7,N/A,,Mostly Cloudy,260,2013-01-12 15:15:00
9:54 AM,19.0,7.0,59,30.12,10.0,West,16.1,-,N/A,,Overcast,270,2013-01-12 15:54:00
10:25 AM,19.4,8.6,63,30.09,10.0,West,13.8,-,N/A,,Scattered Clouds,270,2013-01-12 16:25:00
10:43 AM,19.4,8.6,63,30.08,10.0,WNW,18.4,23.0,N/A,,Mostly Cloudy,290,2013-01-12 16:43:00
10:54 AM,19.9,8.1,60,30.12,10.0,WNW,19.6,-,N/A,,Mostly Cloudy,290,2013-01-12 16:54:00
11:22 AM,19.4,6.8,58,30.10,10.0,WNW,17.3,-,N/A,,Scattered Clouds,290,2013-01-12 17:22:00
11:54 AM,21.0,9.0,60,30.12,10.0,WNW,15.0,-,N/A,,Mostly Cloudy,300,2013-01-12 17:54:00
12:27 PM,21.2,10.4,63,30.07,10.0,WNW,17.3,25.3,N/A,,Mostly Cloudy,290,2013-01-12 18:27:00
12:50 PM,21.2,8.6,58,30.06,10.0,WNW,13.8,23.0,N/A,,Mostly Cloudy,300,2013-01-12 18:50:00
12:54 PM,21.9,9.0,58,30.10,10.0,WNW,16.1,23.0,N/A,,Mostly Cloudy,300,2013-01-12 18:54:00
1:54 PM,21.0,9.0,60,30.09,10.0,NW,20.7,25.3,N/A,,Mostly Cloudy,310,2013-01-12 19:54:00
2:54 PM,19.9,8.1,60,30.12,10.0,WNW,16.1,-,N/A,,Overcast,300,2013-01-12 20:54:00
3:54 PM,19.0,7.0,59,30.12,10.0,NW,17.3,-,0.00,,Overcast,320,2013-01-12 21:54:00
4:54 PM,18.0,8.1,65,30.14,9.0,NW,12.7,-,N/A,,Overcast,320,2013-01-12 22:54:00
5:54 PM,17.1,6.1,62,30.16,10.0,NW,15.0,24.2,N/A,,Mostly Cloudy,310,2013-01-12 23:54:00
7:54 PM,16.0,5.0,62,30.19,10.0,NNW,11.5,-,N/A,,Clear,330,2013-01-13 01:54:00
8:45 PM,14.0,5.0,67,30.15,10.0,NW,13.8,-,N/A,,Mostly Cloudy,310,2013-01-13 02:45:00
8:52 PM,14.0,3.2,62,30.15,10.0,NW,13.8,-,N/A,,Mostly Cloudy,320,2013-01-13 02:52:00
8:54 PM,14.0,3.9,64,30.19,10.0,NW,13.8,-,N/A,,Mostly Cloudy,310,2013-01-13 02:54:00
9:15 PM,14.0,5.0,67,30.14,6.0,NW,16.1,-,N/A,,Haze,320,2013-01-13 03:15:00
9:40 PM,12.2,3.2,67,30.13,10.0,NW,15.0,-,0.00,,Scattered Clouds,310,2013-01-13 03:40:00
9:54 PM,12.9,3.9,67,30.19,10.0,NW,12.7,-,0.00,,Clear,310,2013-01-13 03:54:00
10:26 PM,12.2,3.2,67,30.13,10.0,NW,13.8,-,N/A,,Mostly Cloudy,310,2013-01-13 04:26:00
10:54 PM,12.0,3.9,70,30.17,10.0,NW,12.7,-,N/A,,Overcast,320,2013-01-13 04:54:00
11:54 PM,12.0,3.9,70,30.18,10.0,NW,13.8,-,N/A,,Overcast,310,2013-01-13 05:54:00